• En España
  • Lista de países
  • Para 7 días
  • Temperatura del agua
  • Mapa Satelital
  • El tiempo en el mapa
  • Informadores
  • user-avatar
    Iniciar sesión

    Tiempo cada hora Mayrhofen

    Hoy, 24 Septiembre, Domingo

    Tiempo Temperatura Precipitaciones Viento Presión Humedad
    00:00 +5°C° 0 mm 1 mps 619 mmHg 95%
    01:00 +5°C° 0 mm 1 mps 619 mmHg 94%
    02:00 +5°C° 0,4 mm 1 mps 618 mmHg 94%
    03:00 +5°C° 0,4 mm 1 mps 618 mmHg 94%
    04:00 +5°C° 0,4 mm 1 mps 618 mmHg 94%
    05:00 +5°C° 0,5 mm 1 mps 618 mmHg 94%
    06:00 +5°C° 0,5 mm 1 mps 618 mmHg 94%
    07:00 +5°C° 0,5 mm 1 mps 619 mmHg 94%
    08:00 +6°C° 0,4 mm 1 mps 619 mmHg 91%
    09:00 +7°C° 0,4 mm 1 mps 619 mmHg 87%
    10:00 +8°C° 0,4 mm 1 mps 620 mmHg 83%
    11:00 +8°C° 0,2 mm 2 mps 620 mmHg 79%
    12:00 +8°C° 0,2 mm 2 mps 620 mmHg 75%
    13:00 +9°C° 0,2 mm 2 mps 620 mmHg 72%
    14:00 +9°C° 0,2 mm 2 mps 620 mmHg 72%
    15:00 +9°C° 0,2 mm 2 mps 620 mmHg 73%
    16:00 +9°C° 0,2 mm 2 mps 620 mmHg 74%
    17:00 +8°C° 0,1 mm 1 mps 620 mmHg 80%
    18:00 +6°C° 0,1 mm 1 mps 619 mmHg 86%
    19:00 +5°C° 0,1 mm 1 mps 619 mmHg 92%
    20:00 +4°C° 0 mm 1 mps 619 mmHg 93%
    21:00 +4°C° 0 mm 1 mps 619 mmHg 93%
    22:00 +4°C° 0 mm 1 mps 619 mmHg 94%
    23:00 +3°C° 0 mm 1 mps 619 mmHg 93%

    Mañana, 25 Septiembre, Lunes

    Tiempo Temperatura Precipitaciones Viento Presión Humedad
    00:00 +3°C° 0 mm 1 mps 618 mmHg 93%
    01:00 +3°C° 0 mm 1 mps 618 mmHg 93%
    02:00 +2°C° 0 mm 1 mps 618 mmHg 92%
    03:00 +2°C° 0 mm 1 mps 617 mmHg 91%
    04:00 +1°C° 0 mm 1 mps 617 mmHg 91%
    05:00 +2°C° 0 mm 1 mps 617 mmHg 89%
    06:00 +2°C° 0 mm 1 mps 617 mmHg 87%
    07:00 +2°C° 0 mm 1 mps 618 mmHg 85%
    08:00 +5°C° 0 mm 1 mps 618 mmHg 76%
    09:00 +7°C° 0 mm 0 mps 619 mmHg 67%
    10:00 +9°C° 0 mm 0 mps 620 mmHg 58%
    11:00 +10°C° 0 mm 0 mps 620 mmHg 56%
    12:00 +12°C° 0 mm 1 mps 620 mmHg 53%
    13:00 +13°C° 0 mm 1 mps 620 mmHg 50%
    14:00 +12°C° 0 mm 1 mps 620 mmHg 53%
    15:00 +12°C° 0 mm 1 mps 620 mmHg 55%
    16:00 +11°C° 0 mm 1 mps 620 mmHg 57%
    17:00 +9°C° 0 mm 1 mps 619 mmHg 66%
    18:00 +7°C° 0 mm 1 mps 618 mmHg 76%
    19:00 +3°C° 0 mm 0 mps 618 mmHg 85%
    20:00 +4°C° 0 mm 1 mps 618 mmHg 86%
    21:00 +4°C° 0 mm 1 mps 618 mmHg 86%
    22:00 +3°C° 0 mm 1 mps 618 mmHg 87%
    23:00 +3°C° 0 mm 1 mps 618 mmHg 87%

    Pasado mañana, 26 Septiembre, Martes

    Tiempo Temperatura Precipitaciones Viento Presión Humedad
    00:00 +4°C° 0 mm 1 mps 618 mmHg 88%
    01:00 +4°C° 0 mm 1 mps 618 mmHg 88%
    02:00 +4°C° 0 mm 1 mps 618 mmHg 88%
    03:00 +4°C° 0 mm 1 mps 618 mmHg 88%
    04:00 +4°C° 0 mm 1 mps 618 mmHg 88%
    05:00 +4°C° 0 mm 1 mps 619 mmHg 88%
    06:00 +4°C° 0 mm 1 mps 619 mmHg 87%
    07:00 +5°C° 0 mm 1 mps 619 mmHg 86%
    08:00 +7°C° 0 mm 1 mps 620 mmHg 79%
    09:00 +9°C° 0 mm 1 mps 621 mmHg 71%
    10:00 +11°C° 0 mm 1 mps 622 mmHg 64%
    11:00 +11°C° 0 mm 1 mps 622 mmHg 62%
    12:00 +12°C° 0 mm 1 mps 622 mmHg 60%
    13:00 +12°C° 0 mm 1 mps 622 mmHg 59%
    14:00 +12°C° 0,1 mm 1 mps 622 mmHg 63%
    15:00 +11°C° 0,1 mm 1 mps 622 mmHg 67%
    16:00 +11°C° 0,1 mm 1 mps 621 mmHg 71%
    17:00 +9°C° 0,1 mm 1 mps 621 mmHg 78%
    18:00 +7°C° 0,1 mm 1 mps 620 mmHg 85%
    19:00 +4°C° 0,1 mm 0 mps 620 mmHg 92%
    20:00 +5°C° 0 mm 1 mps 620 mmHg 92%
    21:00 +4°C° 0 mm 1 mps 620 mmHg 92%
    22:00 +4°C° 0 mm 1 mps 620 mmHg 92%
    23:00 +4°C° 0 mm 1 mps 620 mmHg 92%

    27 Septiembre, Miércoles

    Tiempo Temperatura Precipitaciones Viento Presión Humedad
    00:00 +4°C° 0 mm 1 mps 620 mmHg 91%
    01:00 +4°C° 0 mm 1 mps 620 mmHg 90%
    02:00 +3°C° 0 mm 1 mps 620 mmHg 90%
    03:00 +3°C° 0 mm 1 mps 620 mmHg 89%
    04:00 +3°C° 0 mm 1 mps 620 mmHg 89%
    05:00 +3°C° 0 mm 1 mps 620 mmHg 87%
    06:00 +4°C° 0 mm 1 mps 621 mmHg 86%
    07:00 +4°C° 0 mm 1 mps 621 mmHg 85%
    08:00 +7°C° 0 mm 1 mps 622 mmHg 78%
    09:00 +9°C° 0 mm 1 mps 623 mmHg 70%
    10:00 +12°C° 0 mm 1 mps 624 mmHg 63%
    11:00 +12°C° 0 mm 1 mps 624 mmHg 61%
    12:00 +13°C° 0 mm 1 mps 624 mmHg 59%
    13:00 +13°C° 0 mm 1 mps 624 mmHg 57%
    14:00 +13°C° 0 mm 1 mps 624 mmHg 59%
    15:00 +13°C° 0 mm 1 mps 624 mmHg 62%
    16:00 +12°C° 0 mm 1 mps 624 mmHg 64%
    17:00 +10°C° 0 mm 1 mps 623 mmHg 73%
    18:00 +8°C° 0 mm 1 mps 622 mmHg 81%
    19:00 +5°C° 0 mm 1 mps 621 mmHg 89%
    20:00 +5°C° 0 mm 1 mps 622 mmHg 89%
    21:00 +5°C° 0 mm 1 mps 622 mmHg 89%
    22:00 +5°C° 0 mm 1 mps 622 mmHg 89%
    23:00 +4°C° 0 mm 1 mps 622 mmHg 88%

    28 Septiembre, Jueves

    Tiempo Temperatura Precipitaciones Viento Presión Humedad
    00:00 +4°C° 0 mm 1 mps 622 mmHg 88%
    01:00 +4°C° 0 mm 1 mps 622 mmHg 88%
    02:00 +4°C° 0 mm 1 mps 622 mmHg 88%
    03:00 +4°C° 0 mm 1 mps 622 mmHg 88%
    04:00 +4°C° 0 mm 1 mps 621 mmHg 88%
    05:00 +4°C° 0 mm 1 mps 622 mmHg 86%
    06:00 +4°C° 0 mm 1 mps 622 mmHg 85%
    07:00 +5°C° 0 mm 1 mps 622 mmHg 84%
    08:00 +7°C° 0 mm 1 mps 624 mmHg 76%
    09:00 +10°C° 0 mm 1 mps 625 mmHg 67%
    10:00 +13°C° 0 mm 1 mps 626 mmHg 58%
    11:00 +13°C° 0 mm 1 mps 626 mmHg 56%
    12:00 +14°C° 0 mm 1 mps 626 mmHg 54%
    13:00 +15°C° 0 mm 1 mps 626 mmHg 52%
    14:00 +14°C° 0 mm 1 mps 625 mmHg 56%
    15:00 +14°C° 0 mm 2 mps 625 mmHg 59%
    16:00 +13°C° 0 mm 2 mps 625 mmHg 62%
    17:00 +11°C° 0 mm 1 mps 624 mmHg 71%
    18:00 +8°C° 0 mm 1 mps 624 mmHg 80%
    19:00 +6°C° 0 mm 1 mps 623 mmHg 90%
    20:00 +6°C° 0 mm 1 mps 623 mmHg 91%
    21:00 +5°C° 0 mm 1 mps 623 mmHg 92%
    22:00 +5°C° 0 mm 1 mps 623 mmHg 93%
    23:00 +4°C° 0 mm 1 mps 623 mmHg 93%

    29 Septiembre, Viernes

    Tiempo Temperatura Precipitaciones Viento Presión Humedad
    00:00 +4°C° 0 mm 1 mps 623 mmHg 92%
    01:00 +4°C° 0 mm 1 mps 622 mmHg 92%
    02:00 +4°C° 0 mm 1 mps 622 mmHg 91%
    03:00 +4°C° 0 mm 1 mps 622 mmHg 89%
    04:00 +4°C° 0 mm 1 mps 622 mmHg 88%
    05:00 +4°C° 0 mm 1 mps 622 mmHg 86%
    06:00 +4°C° 0 mm 1 mps 622 mmHg 84%
    07:00 +5°C° 0 mm 1 mps 622 mmHg 81%
    08:00 +8°C° 0 mm 1 mps 623 mmHg 72%
    09:00 +10°C° 0 mm 1 mps 624 mmHg 62%
    10:00 +12°C° 0 mm 0 mps 625 mmHg 52%
    11:00 +14°C° 0 mm 1 mps 625 mmHg 50%
    12:00 +15°C° 0 mm 1 mps 625 mmHg 48%
    13:00 +15°C° 0 mm 1 mps 625 mmHg 46%
    14:00 +15°C° 0 mm 1 mps 625 mmHg 49%
    15:00 +14°C° 0 mm 1 mps 624 mmHg 52%
    16:00 +14°C° 0 mm 1 mps 624 mmHg 55%
    17:00 +11°C° 0 mm 1 mps 623 mmHg 66%
    18:00 +8°C° 0 mm 1 mps 622 mmHg 77%
    19:00 +5°C° 0 mm 0 mps 621 mmHg 88%
    20:00 +6°C° 0 mm 1 mps 621 mmHg 88%
    21:00 +5°C° 0 mm 1 mps 621 mmHg 88%
    22:00 +5°C° 0 mm 1 mps 621 mmHg 89%
    23:00 +5°C° 0 mm 1 mps 620 mmHg 88%
    Mostrar más